GW1515 Weather Reports


time (UTC)temp
C
wind
direction
speed
KPH
gust
KPH
rain 1hr
cm
rain 24hr
cm
rain mn
cm
humidity
%
barometer
mb
20260504035844 13 208 8.0 11.3 0.00 0.30 0.30 70 1006.7
20260504035342 13 191 4.8 11.3 0.00 0.30 0.30 70 1006.6
20260504034838 13 200 4.8 8.0 0.00 0.30 0.30 69 1006.6
20260504034336 13 205 4.8 8.0 0.00 0.30 0.30 68 1006.9
20260504033833 13 153 6.4 8.0 0.00 0.30 0.30 68 1006.8
20260504033331 14 180 6.4 11.3 0.00 0.30 0.30 67 1006.8
20260504032827 14 222 8.0 12.9 0.00 0.30 0.30 67 1006.6
20260504032325 14 229 11.3 16.1 0.00 0.30 0.30 67 1006.9
20260504031821 14 197 4.8 16.1 0.00 0.30 0.30 66 1007.0
20260504031319 14 262 3.2 16.1 0.00 0.30 0.30 66 1007.2
20260504030815 14 209 4.8 11.3 0.00 0.30 0.30 67 1007.0
20260504030312 14 180 6.4 9.7 0.00 0.30 0.30 66 1007.1
20260504025808 14 171 3.2 11.3 0.00 0.30 0.30 66 1007.2
20260504025306 14 205 4.8 11.3 0.00 0.30 0.30 65 1007.2
20260504024802 14 203 3.2 8.0 0.00 0.30 0.30 65 1007.1
20260504024258 14 200 4.8 12.9 0.00 0.30 0.30 65 1007.0
20260504023755 15 209 6.4 8.0 0.00 0.30 0.30 64 1007.1
20260504023252 15 183 6.4 9.7 0.00 0.30 0.30 64 1006.9
20260504022748 15 204 4.8 8.0 0.00 0.30 0.30 63 1007.0
20260504022244 15 186 4.8 8.0 0.00 0.30 0.30 62 1007.0
20260504021741 15 198 4.8 12.9 0.00 0.30 0.30 62 1007.1
20260504021238 15 221 4.8 12.9 0.00 0.30 0.30 61 1006.6
20260504020735 15 207 8.0 14.5 0.00 0.30 0.30 60 1006.6
20260504020232 16 213 11.3 16.1 0.00 0.30 0.30 60 1006.9
20260504015728 16 205 6.4 12.9 0.00 0.30 0.30 59 1006.7
20260504015225 16 215 8.0 14.5 0.00 0.30 0.30 59 1006.7
20260504014720 16 218 8.0 17.7 0.00 0.30 0.30 57 1006.4
20260504014217 16 182 8.0 14.5 0.00 0.30 0.30 57 1006.6
20260504013715 16 206 8.0 17.7 0.00 0.30 0.30 56 1006.3
20260504013212 17 214 6.4 19.3 0.00 0.30 0.30 56 1006.5
20260504012709 17 208 8.0 17.7 0.00 0.30 0.30 55 1006.6
20260504012207 17 201 8.0 14.5 0.00 0.30 0.30 55 1006.4
20260504011703 17 210 9.7 16.1 0.00 0.30 0.30 54 1006.4
20260504011200 17 205 11.3 25.7 0.00 0.30 0.30 54 1006.4
20260504010656 17 221 4.8 24.1 0.00 0.30 0.30 54 1006.3
20260504010152 17 215 8.0 14.5 0.00 0.30 0.30 55 1006.5
20260504005649 17 221 4.8 17.7 0.00 0.30 0.30 54 1006.2
20260504005145 17 232 9.7 16.1 0.00 0.30 0.30 53 1006.3
20260504004644 17 234 6.4 19.3 0.00 0.30 0.30 53 1006.4
20260504004140 17 224 4.8 11.3 0.00 0.30 0.30 53 1006.4
20260504003637 17 205 6.4 14.5 0.00 0.30 0.30 52 1006.5
20260504003133 17 215 8.0 20.9 0.00 0.30 0.30 52 1006.6
20260504002630 18 208 11.3 20.9 0.00 0.30 0.30 51 1006.4
20260504002128 18 213 17.7 27.4 0.00 0.30 0.30 50 1006.4
20260504001626 18 228 11.3 25.7 0.00 0.30 0.30 50 1006.5
20260504001121 18 234 11.3 27.4 0.00 0.30 0.30 49 1006.5
20260504000619 18 216 24.1 27.4 0.00 0.30 0.30 48 1006.5
20260504000116 18 221 6.4 17.7 0.00 0.30 0.30 48 1006.4
20260503235614 19 210 14.5 24.1 0.00 0.30 0.30 48 1006.5
20260503235111 19 208 6.4 29.0 0.00 0.30 0.30 48 1006.6
20260503234609 19 216 8.0 40.2 0.00 0.30 0.30 47 1006.6
20260503234106 19 214 6.4 19.3 0.00 0.30 0.30 46 1006.2
20260503233603 20 242 4.8 12.9 0.00 0.30 0.30 47 1006.5
20260503233059 20 209 4.8 14.5 0.00 0.30 0.30 47 1006.5
20260503232556 20 200 3.2 14.5 0.00 0.30 0.30 47 1006.5
20260503232053 20 218 8.0 25.7 0.00 0.30 0.30 46 1006.3
20260503231551 20 224 6.4 33.8 0.00 0.30 0.30 46 1006.4
20260503231048 20 222 16.1 30.6 0.00 0.30 0.30 45 1006.5
20260503230544 20 222 8.0 17.7 0.00 0.30 0.30 45 1006.5
20260503230042 20 247 22.5 22.5 0.00 0.30 0.30 45 1006.9
20260503225538 19 244 14.5 25.7 0.00 0.30 0.30 45 1006.8
20260503225033 19 222 4.8 24.1 0.00 0.30 0.30 46 1006.7
20260503224531 18 148 4.8 19.3 0.00 0.30 0.30 47 1006.8
20260503224029 18 213 24.1 29.0 0.00 0.30 0.30 46 1006.5
20260503223527 18 183 16.1 27.4 0.00 0.30 0.30 46 1007.0
20260503223022 18 216 6.4 27.4 0.00 0.30 0.30 47 1007.0
20260503222520 19 154 8.0 19.3 0.00 0.30 0.30 46 1007.0
20260503222018 18 201 8.0 20.9 0.00 0.30 0.30 47 1007.1
20260503221516 18 201 12.9 29.0 0.00 0.30 0.30 46 1007.3
20260503221013 18 202 6.4 33.8 0.00 0.30 0.30 46 1007.1
20260503220509 18 210 12.9 29.0 0.00 0.30 0.30 45 1007.2
20260503220006 18 219 12.9 24.1 0.00 0.30 0.30 46 1007.1
20260503215503 18 213 12.9 30.6 0.00 0.30 0.30 46 1007.1
20260503215000 18 200 16.1 24.1 0.00 0.30 0.30 46 1007.2
20260503214458 18 219 11.3 29.0 0.00 0.30 0.30 46 1007.4
20260503213955 18 209 24.1 30.6 0.00 0.30 0.30 45 1007.6
20260503213453 17 201 8.0 22.5 0.00 0.30 0.30 47 1007.3
20260503212949 17 209 9.7 25.7 0.00 0.30 0.30 48 1007.8
20260503212447 17 203 16.1 30.6 0.00 0.30 0.30 46 1007.7
20260503211944 17 197 12.9 46.7 0.00 0.30 0.30 46 1007.9
20260503211441 18 182 8.0 43.5 0.00 0.30 0.30 45 1007.9
20260503210937 17 165 11.3 35.4 0.00 0.30 0.30 45 1007.8
20260503210433 18 214 11.3 38.6 0.00 0.30 0.30 45 1008.2
20260503205928 18 229 8.0 22.5 0.00 0.30 0.30 45 1008.1
20260503205426 17 234 11.3 29.0 0.00 0.30 0.30 44 1008.6
20260503204922 17 216 19.3 43.5 0.00 0.30 0.30 44 1008.6
20260503204419 18 236 11.3 33.8 0.00 0.30 0.30 43 1008.4
20260503203916 18 216 33.8 38.6 0.00 0.30 0.30 43 1008.7
20260503203413 18 201 17.7 32.2 0.00 0.30 0.30 42 1008.5
20260503202910 18 205 11.3 49.9 0.00 0.30 0.30 42 1008.8
20260503202409 17 232 9.7 30.6 0.00 0.30 0.30 45 1008.8
20260503201907 17 217 14.5 38.6 0.00 0.30 0.30 46 1008.9
20260503201403 17 203 22.5 32.2 0.00 0.30 0.30 45 1008.8
20260503200901 18 200 9.7 27.4 0.00 0.30 0.30 46 1009.0
20260503200356 17 200 38.6 53.1 0.00 0.30 0.30 44 1009.0
20260503195854 17 198 37.0 59.5 0.00 0.30 0.30 44 1008.8
20260503195350 17 206 22.5 54.7 0.00 0.30 0.30 44 1009.0
20260503194848 17 193 22.5 56.3 0.00 0.30 0.30 43 1009.1
20260503194343 17 203 11.3 48.3 0.00 0.30 0.30 45 1009.0
20260503193840 17 225 8.0 35.4 0.00 0.30 0.30 46 1009.1
20260503193336 17 176 24.1 32.2 0.00 0.30 0.30 48 1009.2
20260503192832 17 176 12.9 24.1 0.00 0.30 0.30 49 1009.1
20260503192327 16 205 14.5 46.7 0.00 0.30 0.30 50 1009.4
20260503191824 17 211 22.5 30.6 0.00 0.30 0.30 50 1009.5
20260503191321 16 208 25.7 43.5 0.00 0.30 0.30 51 1009.7
20260503190817 16 205 29.0 35.4 0.00 0.30 0.30 52 1009.8
20260503190314 16 178 8.0 43.5 0.00 0.30 0.30 57 1009.9
20260503185812 16 179 14.5 33.8 0.00 0.30 0.30 54 1010.0
20260503185307 15 231 8.0 24.1 0.00 0.30 0.30 63 1010.1
20260503184802 15 197 12.9 27.4 0.00 0.30 0.30 61 1010.4
20260503184259 15 161 14.5 24.1 0.00 0.30 0.30 65 1010.3
20260503183754 15 175 16.1 20.9 0.00 0.30 0.30 65 1010.5
20260503183252 13 164 20.9 27.4 0.00 0.30 0.30 67 1010.3
20260503182749 13 189 6.4 24.1 0.00 0.30 0.30 70 1010.7
20260503182248 12 179 12.9 27.4 0.00 0.30 0.30 70 1010.3
20260503181745 12 180 6.4 17.7 0.00 0.30 0.30 75 1010.8
20260503181242 11 138 8.0 20.9 0.00 0.30 0.30 76 1011.0
20260503180738 11 174 8.0 14.5 0.00 0.30 0.30 77 1011.5
20260503180236 10 162 3.2 17.7 0.00 0.30 0.30 79 1011.2
20260503175732 10 162 8.0 16.1 0.00 0.30 0.30 81 1011.6
20260503175231 10 150 9.7 17.7 0.00 0.30 0.30 81 1011.6
20260503174726 10 149 8.0 16.1 0.13 0.30 0.30 81 1011.9
20260503174224 10 122 8.0 12.9 0.23 0.30 0.30 82 1012.3
20260503173719 9 182 6.4 14.5 0.18 0.28 0.28 85 1012.7
20260503173215 9 203 4.8 11.3 0.13 0.25 0.25 84 1013.0
20260503172712 9 206 22.5 22.5 0.00 0.23 0.23 87 1013.3
20260503172209 9 220 4.8 14.5 0.05 0.23 0.23 86 1013.1
20260503171705 9 153 6.4 14.5 0.05 0.23 0.23 88 1013.5
20260503171203 9 232 11.3 14.5 0.05 0.23 0.23 89 1013.5
20260503170700 9 187 6.4 12.9 0.00 0.23 0.23 88 1013.5
20260503170157 9 209 9.7 11.3 0.05 0.23 0.23 89 1013.4
20260503160118 8 169 12.9 17.7 0.36 0.10 0.10 87 1014.6
20260503150548 11 239 16.1 25.7 0.00 0.00 0.00 61 1014.2
20260503130938 9 244 14.5 30.6 0.00 0.00 0.00 63 1014.9
20260503130436 9 211 14.5 20.9 0.00 0.00 0.00 64 1014.8
20260503110823 7 215 14.5 24.1 0.00 0.00 0.00 64 1014.6
20260503110320 7 208 8.0 25.7 0.00 0.00 0.00 64 1014.6
20260503100246 6 248 4.8 17.7 0.00 0.00 0.00 66 1014.7
20260503090206 6 217 9.7 14.5 0.00 0.00 0.00 65 1015.0
20260503081138 6 194 6.4 16.1 0.00 0.00 0.00 63 1015.2
20260503080634 6 208 4.8 14.5 0.00 0.00 0.00 64 1015.1
20260503080131 6 245 6.4 16.1 0.00 0.00 0.00 63 1015.3
20260503072608 6 214 6.4 11.3 0.00 0.00 0.00 62 1015.2
20260503072105 6 204 11.3 14.5 0.00 0.00 0.00 62 1015.3
20260503071602 6 205 6.4 14.5 0.00 0.00 0.00 62 1015.2
20260503071059 6 193 8.0 14.5 0.00 0.00 0.00 62 1015.5
20260503070555 6 210 4.8 14.5 0.00 0.00 0.00 62 1015.4
20260503055015 7 192 6.4 17.7 0.00 0.00 0.00 60 1016.0
20260503054511 7 213 9.7 16.1 0.00 0.00 0.00 60 1016.2
20260503054008 7 218 4.8 11.3 0.00 0.00 0.00 60 1016.0
20260503053506 7 225 4.8 9.7 0.00 0.00 0.00 60 1016.1
20260503053004 7 209 6.4 14.5 0.00 0.00 0.00 60 1016.3
20260503052500 7 220 4.8 12.9 0.00 0.00 0.00 60 1016.2
20260503051956 7 238 6.4 12.9 0.00 0.00 0.00 60 1016.4
20260503051452 7 200 4.8 9.7 0.00 0.00 0.00 60 1016.2
20260503050950 7 204 12.9 17.7 0.00 0.00 0.00 60 1016.3
20260503050445 7 219 3.2 12.9 0.00 0.00 0.00 61 1016.3
20260503045943 7 215 3.2 9.7 0.00 0.00 0.00 61 1016.4
20260503045441 7 216 4.8 11.3 0.00 0.00 0.00 61 1016.2
20260503044937 7 202 6.4 9.7 0.00 0.00 0.00 61 1016.5
20260503044434 7 188 3.2 8.0 0.00 0.00 0.00 61 1016.5
20260503043932 7 218 4.8 9.7 0.00 0.00 0.00 61 1016.4
20260503043428 7 202 6.4 8.0 0.00 0.00 0.00 60 1016.5
20260503042924 7 179 4.8 9.7 0.00 0.00 0.00 59 1016.4
20260503042421 7 183 1.6 8.0 0.00 0.00 0.00 59 1016.8
20260503041918 7 199 6.4 8.0 0.00 0.00 0.00 58 1016.6
20260503041415 7 201 6.4 8.0 0.00 0.00 0.00 59 1016.5
20260503040912 7 190 4.8 9.7 0.00 0.00 0.00 58 1016.6
20260503040409 7 216 4.8 6.4 0.00 0.00 0.00 58 1016.5